Find Starlink 2273

NORAD ID: 47993 Int'l Des: 2021-024 Owner: SPXS Country: US Constellation: starlink operational
LEOCIRCULARSTARLINK_TYPE

リアルタイム位置

3D地球を読み込み中...

Starlink 2273について

説明を読み込み中...

次回通過

Passes for default location (London). Set your location on the main map for personalized predictions.

高度履歴

Loading altitude history...

軌道要素

1 47993U 21024S 26122.08551531 .00057667 00000-0 12558-2 0 9996
2 47993 53.1522 45.0091 0003311 117.1870 242.9474 15.43748144283347
Epoch: May 2, 2026 • Age: 8 hours

現在のステータス

高度 435.7 km
速度 7.65 km/s
衛星直下点 24.17°N, 53.36°E
打ち上げ日 Mar 24, 2021
運用期間 5.1 years
タイプ internet

技術仕様

分類 Payload
質量 260.00 kg
乾燥質量 248.00 kg
総質量 260.00 kg
長さ 0.20 m
直径 2.80 m
スパン 9.00 m
形状 Box + pan
製造者 SPXS
バスタイプ Starlink
フェーズステータス In Orbit
所有者/国 SPXS/US

Most Searched